KA5J Weather Reports


time (UTC)temp
C
wind
direction
speed
KPH
gust
KPH
rain 1hr
cm
rain 24hr
cm
rain mn
cm
humidity
%
barometer
mb
20260906194552 40 242 0.0 3.2 0.00 0.00 0.00 33 1011.9
20260906194030 40 0 0.0 4.8 0.00 0.00 0.00 31 1012.0
20260906193530 40 311 1.6 6.4 0.00 0.00 0.00 30 1012.1
20260906193057 41 188 0.0 6.4 0.00 0.00 0.00 32 1012.1
20260906192531 40 244 0.0 4.8 0.00 0.00 0.00 31 1012.1
20260906192029 40 352 0.0 6.4 0.00 0.00 0.00 34 1012.3
20260906191556 40 0 1.6 6.4 0.00 0.00 0.00 33 1012.4
20260906191030 39 213 0.0 8.0 0.00 0.00 0.00 36 1012.4
20260906190534 39 87 3.2 8.0 0.00 0.00 0.00 33 1012.5
20260906190052 40 61 0.0 6.4 0.00 0.00 0.00 33 1012.5
20260906185528 40 0 1.6 6.4 0.00 0.00 0.00 34 1012.6
20260906185029 40 64 0.0 4.8 0.00 0.00 0.00 34 1012.7
20260906184555 40 86 0.0 4.8 0.00 0.00 0.00 33 1012.8
20260906184029 40 63 0.0 4.8 0.00 0.00 0.00 33 1012.7
20260906183528 40 0 0.0 4.8 0.00 0.00 0.00 34 1012.9
20260906183048 40 0 0.0 3.2 0.00 0.00 0.00 32 1013.0
20260906182531 40 0 0.0 3.2 0.00 0.00 0.00 33 1013.1
20260906182031 40 133 0.0 1.6 0.00 0.00 0.00 32 1013.1
20260906181555 40 330 0.0 3.2 0.00 0.00 0.00 34 1013.3
20260906181031 40 0 0.0 3.2 0.00 0.00 0.00 33 1013.3
20260906180531 40 199 0.0 4.8 0.00 0.00 0.00 34 1013.4
20260906180104 40 224 0.0 4.8 0.00 0.00 0.00 34 1013.5
20260906175528 39 208 1.6 4.8 0.00 0.00 0.00 35 1013.6
20260906175028 39 0 0.0 3.2 0.00 0.00 0.00 36 1013.7
20260906174556 39 0 0.0 3.2 0.00 0.00 0.00 37 1013.7
20260906174030 38 0 0.0 4.8 0.00 0.00 0.00 36 1013.9
20260906173532 38 220 0.0 4.8 0.00 0.00 0.00 36 1014.0
20260906173101 38 0 0.0 4.8 0.00 0.00 0.00 36 1014.0
20260906172530 38 0 0.0 4.8 0.00 0.00 0.00 37 1014.1
20260906172031 38 160 0.0 3.2 0.00 0.00 0.00 37 1014.2
20260906171557 38 327 0.0 1.6 0.00 0.00 0.00 37 1014.4
20260906171031 38 0 0.0 1.6 0.00 0.00 0.00 38 1014.4
20260906170532 37 0 0.0 1.6 0.00 0.00 0.00 38 1014.4
20260906170059 37 66 0.0 3.2 0.00 0.00 0.00 39 1014.5
20260906165531 37 236 0.0 3.2 0.00 0.00 0.00 41 1014.6
20260906165030 37 326 0.0 1.6 0.00 0.00 0.00 39 1014.6
20260906164550 37 0 0.0 3.2 0.00 0.00 0.00 40 1014.7
20260906164031 37 0 0.0 3.2 0.00 0.00 0.00 44 1014.8
20260906163530 36 0 0.0 3.2 0.00 0.00 0.00 43 1014.9
20260906163107 36 315 0.0 3.2 0.00 0.00 0.00 45 1014.9
20260906162532 36 0 0.0 3.2 0.00 0.00 0.00 46 1014.9
20260906162029 35 0 0.0 3.2 0.00 0.00 0.00 46 1014.8
20260906161551 35 231 0.0 1.6 0.00 0.00 0.00 47 1014.8
20260906161030 35 220 0.0 1.6 0.00 0.00 0.00 48 1014.8
20260906160529 34 0 0.0 0.0 0.00 0.00 0.00 51 1014.9
20260906160052 34 0 0.0 0.0 0.00 0.00 0.00 51 1014.9
20260906155531 35 0 0.0 0.0 0.00 0.00 0.00 50 1014.8
20260906155028 35 0 0.0 0.0 0.00 0.00 0.00 49 1014.9
20260906154601 35 0 0.0 0.0 0.00 0.00 0.00 50 1014.9
20260906154029 35 0 0.0 1.6 0.00 0.00 0.00 49 1014.8
20260906153533 34 171 0.0 1.6 0.00 0.00 0.00 51 1014.7
20260906153052 34 328 0.0 0.0 0.00 0.00 0.00 51 1014.9
20260906152527 33 0 0.0 1.6 0.00 0.00 0.00 53 1014.8
20260906152035 33 0 0.0 1.6 0.00 0.00 0.00 52 1014.7
20260906151551 32 0 0.0 1.6 0.00 0.00 0.00 55 1014.7
20260906151030 32 0 0.0 3.2 0.00 0.00 0.00 55 1014.6
20260906150529 32 93 0.0 3.2 0.00 0.00 0.00 55 1014.6
20260906150049 32 221 0.0 1.6 0.00 0.00 0.00 57 1014.6
20260906145530 32 0 0.0 1.6 0.00 0.00 0.00 56 1014.6
20260906145030 32 0 0.0 0.0 0.00 0.00 0.00 58 1014.6
20260906144555 31 0 0.0 0.0 0.00 0.00 0.00 59 1014.6
20260906144030 31 0 0.0 0.0 0.00 0.00 0.00 57 1014.7
20260906143531 31 0 0.0 0.0 0.00 0.00 0.00 59 1014.5
20260906143053 31 0 0.0 0.0 0.00 0.00 0.00 62 1014.5
20260906142531 31 0 0.0 0.0 0.00 0.00 0.00 61 1014.5
20260906142027 31 0 0.0 0.0 0.00 0.00 0.00 61 1014.6
20260906141548 30 0 0.0 0.0 0.00 0.00 0.00 63 1014.5
20260906141028 30 169 0.0 0.0 0.00 0.00 0.00 66 1014.5
20260906140529 28 0 0.0 0.0 0.00 0.00 0.00 68 1014.5
20260906140048 28 0 0.0 0.0 0.00 0.00 0.00 70 1014.3
20260906135535 27 0 0.0 0.0 0.00 0.00 0.00 71 1014.3
20260906135116 27 0 0.0 0.0 0.00 0.00 0.00 72 1014.2
20260906134553 27 0 0.0 0.0 0.00 0.00 0.00 72 1014.2
20260906134031 27 0 0.0 0.0 0.00 0.00 0.00 72 1014.2
20260906133529 27 0 0.0 0.0 0.00 0.00 0.00 73 1014.3
20260906133052 27 0 0.0 0.0 0.00 0.00 0.00 73 1014.2
20260906132532 26 0 0.0 0.0 0.00 0.00 0.00 74 1014.2
20260906132029 26 0 0.0 0.0 0.00 0.00 0.00 75 1014.2
20260906131550 26 0 0.0 0.0 0.00 0.00 0.00 75 1014.3
20260906131032 26 0 0.0 0.0 0.00 0.00 0.00 75 1014.3
20260906130530 26 0 0.0 0.0 0.00 0.00 0.00 76 1014.4
20260906130057 25 0 0.0 0.0 0.00 0.00 0.00 77 1014.3
20260906125530 25 0 0.0 0.0 0.00 0.00 0.00 79 1014.4
20260906125027 25 0 0.0 0.0 0.00 0.00 0.00 80 1014.2
20260906124555 24 0 0.0 0.0 0.00 0.00 0.00 81 1014.0
20260906124033 24 0 0.0 0.0 0.00 0.00 0.00 81 1014.0
20260906123530 24 0 0.0 0.0 0.00 0.00 0.00 82 1014.0
20260906123050 23 0 0.0 0.0 0.00 0.00 0.00 83 1013.8
20260906122528 23 0 0.0 0.0 0.00 0.00 0.00 83 1013.8
20260906122027 23 0 0.0 0.0 0.00 0.00 0.00 83 1013.7
20260906121554 23 0 0.0 0.0 0.00 0.00 0.00 83 1013.7
20260906121028 23 0 0.0 0.0 0.00 0.00 0.00 82 1013.7
20260906120530 23 0 0.0 0.0 0.00 0.00 0.00 83 1013.6
20260906120110 23 0 0.0 0.0 0.00 0.00 0.00 83 1013.6
20260906115528 23 0 0.0 0.0 0.00 0.00 0.00 84 1013.5
20260906115029 23 0 0.0 0.0 0.00 0.00 0.00 83 1013.5
20260906114551 23 0 0.0 0.0 0.00 0.00 0.00 83 1013.4
20260906114026 23 0 0.0 0.0 0.00 0.00 0.00 83 1013.5
20260906113528 23 0 0.0 0.0 0.00 0.00 0.00 83 1013.3
20260906113054 23 0 0.0 0.0 0.00 0.00 0.00 83 1013.2
20260906112533 23 0 0.0 0.0 0.00 0.00 0.00 82 1013.3
20260906112028 23 0 0.0 0.0 0.00 0.00 0.00 82 1013.2
20260906111608 23 0 0.0 0.0 0.00 0.00 0.00 82 1013.2
20260906111030 23 0 0.0 0.0 0.00 0.00 0.00 82 1013.0
20260906110531 23 0 0.0 0.0 0.00 0.00 0.00 81 1013.0
20260906110050 24 0 0.0 0.0 0.00 0.00 0.00 81 1013.0
20260906105530 24 0 0.0 0.0 0.00 0.00 0.00 81 1013.0
20260906105027 24 0 0.0 0.0 0.00 0.00 0.00 81 1013.1
20260906104552 24 0 0.0 0.0 0.00 0.00 0.00 81 1013.1
20260906104028 24 0 0.0 0.0 0.00 0.00 0.00 81 1013.0
20260906103530 24 0 0.0 0.0 0.00 0.00 0.00 81 1013.0
20260906103048 24 0 0.0 0.0 0.00 0.00 0.00 81 1013.0
20260906102531 24 0 0.0 0.0 0.00 0.00 0.00 81 1013.0
20260906102033 24 0 0.0 0.0 0.00 0.00 0.00 80 1013.0
20260906101558 24 0 0.0 0.0 0.00 0.00 0.00 80 1012.9
20260906101027 24 0 0.0 0.0 0.00 0.00 0.00 79 1013.0
20260906100532 24 0 0.0 0.0 0.00 0.00 0.00 79 1013.0
20260906100051 25 0 0.0 0.0 0.00 0.00 0.00 80 1013.0
20260906095528 25 0 0.0 0.0 0.00 0.00 0.00 80 1013.0
20260906095027 25 0 0.0 0.0 0.00 0.00 0.00 79 1013.1
20260906094552 25 0 0.0 0.0 0.00 0.00 0.00 79 1013.0
20260906094027 25 0 0.0 0.0 0.00 0.00 0.00 79 1012.9
20260906093529 25 0 0.0 0.0 0.00 0.00 0.00 80 1012.9
20260906093050 25 0 0.0 0.0 0.00 0.00 0.00 81 1012.8
20260906092530 25 0 0.0 0.0 0.00 0.00 0.00 80 1012.8
20260906092029 25 0 0.0 0.0 0.00 0.00 0.00 80 1012.9
20260906091544 25 0 0.0 0.0 0.00 0.00 0.00 80 1012.9
20260906091030 25 0 0.0 0.0 0.00 0.00 0.00 81 1012.8
20260906090527 25 0 0.0 0.0 0.00 0.00 0.00 79 1012.8
20260906090057 25 0 0.0 0.0 0.00 0.00 0.00 79 1012.7
20260906085527 25 0 0.0 0.0 0.00 0.00 0.00 79 1012.6
20260906085030 25 0 0.0 0.0 0.00 0.00 0.00 79 1012.6
20260906084553 25 0 0.0 0.0 0.00 0.00 0.00 79 1012.6
20260906084028 25 0 0.0 0.0 0.00 0.00 0.00 79 1012.7
20260906083528 25 0 0.0 0.0 0.00 0.00 0.00 79 1012.5
20260906083101 25 0 0.0 0.0 0.00 0.00 0.00 78 1012.3
20260906082530 25 0 0.0 0.0 0.00 0.00 0.00 79 1012.3
20260906082033 25 0 0.0 0.0 0.00 0.00 0.00 79 1012.4
20260906081558 25 0 0.0 0.0 0.00 0.00 0.00 79 1012.3
20260906081030 25 0 0.0 0.0 0.00 0.00 0.00 79 1012.3
20260906080530 25 0 0.0 0.0 0.00 0.00 0.00 78 1012.4
20260906080104 25 0 0.0 0.0 0.00 0.00 0.00 78 1012.3
20260906075528 25 0 0.0 0.0 0.00 0.00 0.00 77 1012.5
20260906075031 25 0 0.0 0.0 0.00 0.00 0.00 77 1012.4
20260906074550 25 0 0.0 0.0 0.00 0.00 0.00 76 1012.3
20260906074027 25 0 0.0 0.0 0.00 0.00 0.00 77 1012.2
20260906073528 26 0 0.0 0.0 0.00 0.00 0.00 77 1012.1
20260906073125 26 0 0.0 0.0 0.00 0.00 0.00 76 1012.1
20260906072528 26 0 0.0 0.0 0.00 0.00 0.00 76 1012.2
20260906072027 26 0 0.0 0.0 0.00 0.00 0.00 75 1012.4
20260906071601 26 0 0.0 0.0 0.00 0.00 0.00 76 1012.4
20260906071030 26 0 0.0 0.0 0.00 0.00 0.00 76 1012.5
20260906070529 26 0 0.0 0.0 0.00 0.00 0.00 75 1012.5
20260906070050 26 0 0.0 0.0 0.00 0.00 0.00 75 1012.5
20260906065528 26 0 0.0 0.0 0.00 0.00 0.00 75 1012.5
20260906065028 26 0 0.0 0.0 0.00 0.00 0.00 74 1012.4
20260906064549 26 0 0.0 0.0 0.00 0.00 0.00 74 1012.4
20260906064028 26 0 0.0 0.0 0.00 0.00 0.00 73 1012.4
20260906063531 26 0 0.0 0.0 0.00 0.00 0.00 74 1012.4
20260906063056 26 0 0.0 0.0 0.00 0.00 0.00 74 1012.4
20260906062527 26 0 0.0 0.0 0.00 0.00 0.00 73 1012.5
20260906062028 26 0 0.0 0.0 0.00 0.00 0.00 73 1012.5
20260906061556 26 0 0.0 0.0 0.00 0.00 0.00 72 1012.5
20260906061027 27 0 0.0 0.0 0.00 0.00 0.00 72 1012.5
20260906060530 27 0 0.0 0.0 0.00 0.00 0.00 71 1012.5
20260906060048 27 0 0.0 0.0 0.00 0.00 0.00 71 1012.4
20260906055532 27 0 0.0 0.0 0.00 0.00 0.00 71 1012.5
20260906055030 27 0 0.0 0.0 0.00 0.00 0.00 72 1012.5
20260906054555 27 0 0.0 0.0 0.00 0.00 0.00 71 1012.5
20260906054033 27 0 0.0 0.0 0.00 0.00 0.00 71 1012.5
20260906053527 27 0 0.0 0.0 0.00 0.00 0.00 71 1012.3
20260906053054 27 0 0.0 0.0 0.00 0.00 0.00 71 1012.3
20260906052530 27 0 0.0 0.0 0.00 0.00 0.00 70 1012.2
20260906052030 27 0 0.0 0.0 0.00 0.00 0.00 70 1012.2
20260906051555 27 0 0.0 0.0 0.00 0.00 0.00 70 1012.1
20260906051030 27 0 0.0 0.0 0.00 0.00 0.00 69 1012.2
20260906050531 27 0 0.0 0.0 0.00 0.00 0.00 69 1012.3
20260906050057 27 0 0.0 0.0 0.00 0.00 0.00 68 1012.3
20260906045529 27 0 0.0 0.0 0.00 0.00 0.00 68 1012.2
20260906045030 27 0 0.0 0.0 0.00 0.00 0.00 68 1012.3
20260906044553 27 0 0.0 3.2 0.00 0.00 0.00 68 1012.2
20260906044030 27 0 0.0 3.2 0.00 0.00 0.00 68 1012.3
20260906043527 27 0 0.0 0.0 0.00 0.00 0.00 66 1012.2
20260906043050 28 0 0.0 0.0 0.00 0.00 0.00 66 1012.1
20260906042530 28 0 0.0 0.0 0.00 0.00 0.00 65 1012.2
20260906042028 28 0 0.0 0.0 0.00 0.00 0.00 64 1012.2
20260906041553 28 0 0.0 0.0 0.00 0.00 0.00 65 1012.2
20260906041028 28 0 0.0 0.0 0.00 0.00 0.00 65 1012.1
20260906040528 28 0 0.0 0.0 0.00 0.00 0.00 65 1012.1
20260906040054 28 0 0.0 0.0 0.00 0.00 0.00 65 1012.1
20260906035529 28 0 0.0 0.0 0.00 0.00 0.00 65 1012.1
20260906035029 28 0 0.0 0.0 0.00 0.00 0.00 65 1012.1
20260906034554 28 0 0.0 0.0 0.00 0.00 0.00 65 1012.1
20260906034029 28 0 0.0 0.0 0.00 0.00 0.00 65 1012.0
20260906033527 29 0 0.0 0.0 0.00 0.00 0.00 64 1011.9
20260906033049 29 0 0.0 0.0 0.00 0.00 0.00 64 1011.9
20260906032527 29 0 0.0 0.0 0.00 0.00 0.00 63 1011.8
20260906032028 29 0 0.0 0.0 0.00 0.00 0.00 63 1011.9
20260906031552 29 0 0.0 0.0 0.00 0.00 0.00 62 1012.0
20260906031029 29 0 0.0 0.0 0.00 0.00 0.00 61 1012.1
20260906030529 30 0 0.0 0.0 0.00 0.00 0.00 61 1012.1
20260906030050 30 0 0.0 0.0 0.00 0.00 0.00 62 1012.1
20260906025530 29 0 0.0 0.0 0.00 0.00 0.00 62 1012.1
20260906025028 29 0 0.0 0.0 0.00 0.00 0.00 63 1011.9
20260906024601 30 0 0.0 0.0 0.00 0.00 0.00 63 1011.9
20260906024029 30 0 0.0 0.0 0.00 0.00 0.00 62 1011.7
20260906023528 30 0 0.0 0.0 0.00 0.00 0.00 62 1011.8
20260906023053 30 0 0.0 0.0 0.00 0.00 0.00 61 1011.7
20260906022526 30 0 0.0 0.0 0.00 0.00 0.00 61 1011.5
20260906022033 30 0 0.0 0.0 0.00 0.00 0.00 61 1011.5
20260906021551 30 0 0.0 0.0 0.00 0.00 0.00 60 1011.4
20260906021031 30 0 0.0 0.0 0.00 0.00 0.00 59 1011.3
20260906020528 30 0 0.0 0.0 0.00 0.00 0.00 58 1011.4
20260906020051 30 0 0.0 0.0 0.00 0.00 0.00 58 1011.3
20260906015526 30 0 0.0 0.0 0.00 0.00 0.00 57 1011.3
20260906015027 31 0 0.0 0.0 0.00 0.00 0.00 57 1011.3
20260906014600 31 0 0.0 0.0 0.00 0.00 0.00 56 1011.2
20260906014030 31 0 0.0 0.0 0.00 0.00 0.00 55 1011.1
20260906013530 31 0 0.0 0.0 0.00 0.00 0.00 56 1011.2
20260906013051 31 0 0.0 0.0 0.00 0.00 0.00 55 1011.1
20260906012526 32 0 0.0 0.0 0.00 0.00 0.00 54 1011.0
20260906012029 32 0 0.0 0.0 0.00 0.00 0.00 52 1010.9
20260906011549 32 0 0.0 0.0 0.00 0.00 0.00 51 1010.9
20260906011030 32 0 0.0 0.0 0.00 0.00 0.00 51 1011.0
20260906010530 33 0 0.0 0.0 0.00 0.00 0.00 51 1010.9
20260906010054 33 0 0.0 0.0 0.00 0.00 0.00 51 1010.8
20260906005529 33 0 0.0 0.0 0.00 0.00 0.00 48 1010.9
20260906005033 34 0 0.0 0.0 0.00 0.00 0.00 46 1010.8
20260906004554 34 0 0.0 0.0 0.00 0.00 0.00 45 1010.7
20260906004029 35 0 0.0 0.0 0.00 0.00 0.00 45 1010.8
20260906003530 35 0 0.0 0.0 0.00 0.00 0.00 42 1010.7
20260906003109 35 0 0.0 0.0 0.00 0.00 0.00 42 1010.8
20260906002528 36 0 0.0 1.6 0.00 0.00 0.00 41 1010.7
20260906002029 36 0 0.0 1.6 0.00 0.00 0.00 39 1010.8
20260906001549 36 139 0.0 1.6 0.00 0.00 0.00 39 1010.7
20260906001028 36 0 0.0 1.6 0.00 0.00 0.00 38 1010.7
20260906000528 36 75 0.0 1.6 0.00 0.00 0.00 38 1010.8
20260906000059 36 140 0.0 1.6 0.00 0.00 0.00 38 1010.8
20260905235529 36 0 0.0 1.6 0.00 0.00 0.00 38 1010.7
20260905235027 36 0 0.0 1.6 0.00 0.00 0.00 37 1010.6
20260905234606 37 136 0.0 1.6 0.00 0.00 0.00 37 1010.6
20260905234033 37 0 0.0 3.2 0.00 0.00 0.00 37 1010.6
20260905233529 37 90 0.0 4.8 0.00 0.00 0.00 37 1010.4
20260905233050 37 127 0.0 4.8 0.00 0.00 0.00 38 1010.4
20260905232531 37 0 0.0 4.8 0.00 0.00 0.00 37 1010.4
20260905232027 37 86 0.0 3.2 0.00 0.00 0.00 37 1010.4
20260905231549 37 191 0.0 6.4 0.00 0.00 0.00 36 1010.4
20260905231027 37 0 0.0 6.4 0.00 0.00 0.00 37 1010.5
20260905230528 37 0 0.0 6.4 0.00 0.00 0.00 36 1010.4
20260905230052 37 0 0.0 6.4 0.00 0.00 0.00 37 1010.3
20260905225529 37 0 0.0 6.4 0.00 0.00 0.00 36 1010.3
20260905225028 38 232 0.0 8.0 0.00 0.00 0.00 36 1010.4
20260905224550 38 129 3.2 8.0 0.00 0.00 0.00 35 1010.5
20260905224029 38 161 1.6 6.4 0.00 0.00 0.00 36 1010.4
20260905223529 38 153 0.0 3.2 0.00 0.00 0.00 35 1010.5
20260905223049 38 0 0.0 9.7 0.00 0.00 0.00 36 1010.6
20260905222532 38 0 0.0 9.7 0.00 0.00 0.00 36 1010.5
20260905222027 38 51 1.6 9.7 0.00 0.00 0.00 35 1010.6
20260905221555 39 0 0.0 3.2 0.00 0.00 0.00 34 1010.6
20260905221029 39 173 0.0 3.2 0.00 0.00 0.00 34 1010.7
20260905220526 40 0 0.0 8.0 0.00 0.00 0.00 35 1010.7
20260905220050 39 0 1.6 8.0 0.00 0.00 0.00 35 1010.9
20260905215529 38 257 0.0 8.0 0.00 0.00 0.00 36 1010.9
20260905215030 38 0 1.6 8.0 0.00 0.00 0.00 36 1010.9
20260905214548 38 0 0.0 8.0 0.00 0.00 0.00 37 1011.0
20260905214027 38 118 0.0 8.0 0.00 0.00 0.00 36 1011.0
20260905213528 38 69 1.6 9.7 0.00 0.00 0.00 37 1011.1
20260905213057 38 339 1.6 9.7 0.00 0.00 0.00 36 1011.0
20260905212531 38 84 3.2 9.7 0.00 0.00 0.00 37 1011.2
20260905212028 38 84 1.6 8.0 0.00 0.00 0.00 37 1011.1
20260905211551 38 84 0.0 9.7 0.00 0.00 0.00 36 1011.3
20260905211030 38 57 3.2 9.7 0.00 0.00 0.00 36 1011.4
20260905210532 38 67 1.6 17.7 0.00 0.00 0.00 36 1011.4
20260905210048 38 118 4.8 17.7 0.00 0.00 0.00 36 1011.5
20260905205528 38 90 1.6 6.4 0.00 0.00 0.00 37 1011.6
20260905205028 38 70 0.0 6.4 0.00 0.00 0.00 35 1011.5
20260905204556 38 215 1.6 6.4 0.00 0.00 0.00 35 1011.7
20260905204027 38 185 0.0 6.4 0.00 0.00 0.00 37 1011.8
20260905203531 38 132 1.6 9.7 0.00 0.00 0.00 37 1011.8
20260905203057 38 70 3.2 11.3 0.00 0.00 0.00 36 1011.9
20260905202527 38 74 1.6 11.3 0.00 0.00 0.00 37 1012.0
20260905202029 38 68 3.2 11.3 0.00 0.00 0.00 37 1012.1
20260905201551 38 353 1.6 6.4 0.00 0.00 0.00 37 1012.3
20260905201028 38 48 1.6 11.3 0.00 0.00 0.00 37 1012.3
20260905200531 38 72 1.6 11.3 0.00 0.00 0.00 39 1012.5
20260905200056 38 83 4.8 14.5 0.00 0.00 0.00 37 1012.5
20260905195528 38 91 3.2 14.5 0.00 0.00 0.00 37 1012.7
20260905195028 38 330 1.6 9.7 0.00 0.00 0.00 37 1012.7